BREEZE-M DEB

基本信息
目录编号:
48532
目录名称:
BREEZE-M DEB
国际标识:
2008-011DX
轨道中心:
EARTH
物体状态:
在轨
发射日期:
2008-03-14 UTC
轨道信息
数据来源: 国际轨道数据
星历时间: 2026-06-30T03:04:39+0800
半长轴: 20059.272km
偏心率: 0.6331935
轨道倾角: 49.076°
近地点辐角: 199.032°
升交点赤经: 47.787°
平近点角: 118.298°
近地点: 979.734km
远地点: 26382.536km
周期: 471.229分钟
每日圈数: 3.055836
详细信息
发射场:
TTMTR
轨道高度:
LEO
数据来源:
AOE Integration Group
参考系:
TEME
时间系统:
UTC
历元类型:
SGP4
2D轨道图
3D轨道图
轨道高度分析图
轨道倾角分析图
轨道综合分析图
查看轨道综合分析图